QPF
0.01 0.01 0.00 0.00 0.00 0.00 0.00 0.00 0.00 0.00 0.00 0.00 0.00 0.00 0.00 0.00 0.00 0.00 0.00 0.00 0.00 0.00 0.00 0.00 0.00 0.00 0.00 0.00 0.00 0.00 0.00 0.00 0.00 0.00 0.00 0.01 0.01 0.01 0.01 0.00 0.00 0.00 0.00 0.00
0.00 0.00 0.00 0.00 0.00 0.00 0.00 0.00 0.00 0.00 0.00 0.00 0.00 0.00 0.00 0.00 0.00 0.00 0.00 0.00 0.00 0.00 0.00 0.00 0.00 0.00 0.00 0.00 0.00 0.00 0.00 0.00 0.00 0.00 0.00 0.00 0.00 0.00 0.01 0.01 0.01 0.01 0.01 0.01
0.00 0.00 0.00 0.00 0.00 0.00 0.00 0.00 0.00 0.00 0.00 0.00 0.00 0.00 0.00 0.00 0.00 0.00 0.00 0.00 0.00 0.00 0.00 0.00 0.00 0.00 0.00 0.00 0.00 0.00 0.00 0.00 0.00 0.00 0.00 0.00 0.01 0.01 0.01 0.01 0.01 0.01 0.01 0.01
0.00 0.00 0.00 0.00 0.00 0.00 0.00 0.00 0.00 0.00 0.00 0.00 0.00 0.00 0.00 0.00 0.00 0.00 0.00 0.00 0.00 0.00 0.00 0.00 0.00 0.00 0.00 0.00 0.00 0.00 0.00 0.00 0.00 0.00 0.00 0.00 0.00 0.00 0.00 0.01 0.01 0.01 0.01 0.01
0.00 0.00 0.00 0.00 0.00 0.00 0.00 0.00 0.00 0.00 0.00 0.00 0.00 0.00 0.00 0.00 0.00 0.00 0.00 0.00 0.00 0.00 0.00 0.00 0.00 0.00 0.00 0.00 0.00 0.00 0.00 0.00 0.00 0.00 0.00 0.00 0.00 0.00 0.00 0.00 0.01 0.01 0.01 0.02
0.00 0.00 0.00 0.00 0.00 0.00 0.00 0.00 0.00 0.00 0.00 0.00 0.00 0.00 0.00 0.00 0.00 0.00 0.00 0.00 0.00 0.00 0.00 0.00 0.00 0.00 0.00 0.00 0.00 0.00 0.00 0.00 0.00 0.00 0.00 0.00 0.00 0.00 0.00 0.00 0.01 0.01 0.01 0.01
0.00 0.00 0.00 0.00 0.00 0.00 0.00 0.00 0.00 0.00 0.00 0.00 0.00 0.00 0.00 0.00 0.00 0.00 0.00 0.00 0.00 0.00 0.00 0.00 0.00 0.00 0.00 0.00 0.00 0.00 0.00 0.00 0.00 0.00 0.00 0.00 0.00 0.00 0.00 0.00 0.00 0.00 0.01 0.01
0.00 0.00 0.00 0.00 0.00 0.00 0.00 0.00 0.00 0.00 0.00 0.00 0.00 0.00 0.00 0.00 0.00 0.00 0.00 0.00 0.00 0.00 0.00 0.00 0.00 0.00 0.00 0.00 0.00 0.00 0.00 0.00 0.00 0.00 0.00 0.00 0.00 0.00 0.00 0.00 0.00 0.00 0.00 0.00
0.00 0.00 0.00 0.00 0.00 0.00 0.00 0.00 0.00 0.00 0.00 0.00 0.00 0.00 0.00 0.00 0.00 0.00 0.00 0.00 0.00 0.00 0.00 0.00 0.00 0.00 0.00 0.00 0.00 0.00 0.00 0.00 0.00 0.00 0.00 0.00 0.00 0.00 0.00 0.00 0.00 0.00 0.00 0.00
0.00 0.00 0.00 0.00 0.00 0.00 0.00 0.00 0.00 0.00 0.00 0.00 0.00 0.00 0.00 0.00 0.00 0.00 0.00 0.00 0.00 0.00 0.00 0.00 0.00 0.00 0.00 0.00 0.00 0.00 0.00 0.00 0.00 0.00 0.00 0.00 0.00 0.00 0.00 0.00 0.00 0.00 0.00 0.00
0.00 0.00 0.00 0.00 0.00 0.00 0.00 0.00 0.00 0.00 0.00 0.00 0.00 0.00 0.00 0.00 0.00 0.00 0.00 0.00 0.00 0.00 0.00 0.00 0.00 0.00 0.00 0.00 0.00 0.00 0.00 0.00 0.00 0.00 0.00 0.00 0.00 0.00 0.00 0.00 0.00 0.00 0.00 0.00
0.00 0.00 0.00 0.00 0.00 0.00 0.00 0.00 0.00 0.00 0.00 0.00 0.00 0.00 0.00 0.00 0.00 0.00 0.00 0.00 0.00 0.00 0.00 0.00 0.00 0.00 0.00 0.00 0.00 0.00 0.00 0.00 0.00 0.00 0.00 0.00 0.00 0.00 0.00 0.00 0.00 0.00 0.00 0.00
0.00 0.00 0.00 0.00 0.00 0.00 0.00 0.00 0.00 0.00 0.00 0.00 0.00 0.00 0.00 0.00 0.00 0.00 0.00 0.00 0.00 0.00 0.00 0.00 0.00 0.00 0.00 0.00 0.00 0.00 0.00 0.00 0.00 0.00 0.00 0.00 0.00 0.00 0.00 0.00 0.00 0.00 0.00 0.00
0.00 0.00 0.00 0.00 0.00 0.00 0.00 0.00 0.00 0.00 0.00 0.00 0.00 0.00 0.00 0.00 0.00 0.00 0.00 0.00 0.00 0.00 0.00 0.00 0.00 0.00 0.00 0.00 0.00 0.00 0.00 0.00 0.00 0.00 0.00 0.00 0.00 0.00 0.00 0.00 0.00 0.00 0.00 0.00
0.00 0.00 0.00 0.00 0.00 0.00 0.00 0.00 0.00 0.00 0.00 0.00 0.00 0.00 0.00 0.00 0.00 0.00 0.00 0.00 0.00 0.00 0.00 0.00 0.00 0.00 0.00 0.00 0.00 0.00 0.00 0.00 0.00 0.00 0.00 0.00 0.00 0.00 0.00 0.00 0.00 0.00 0.00 0.00
0.00 0.00 0.00 0.00 0.00 0.00 0.00 0.00 0.00 0.00 0.00 0.00 0.00 0.00 0.00 0.00 0.00 0.00 0.00 0.00 0.00 0.00 0.00 0.00 0.00 0.00 0.00 0.00 0.00 0.00 0.00 0.00 0.00 0.00 0.00 0.00 0.00 0.00 0.00 0.00 0.00 0.00 0.00 0.00
0.00 0.00 0.00 0.00 0.00 0.00 0.00 0.00 0.00 0.00 0.00 0.00 0.00 0.00 0.00 0.00 0.00 0.00 0.00 0.00 0.00 0.00 0.00 0.00 0.00 0.00 0.00 0.00 0.00 0.00 0.00 0.00 0.00 0.00 0.00 0.00 0.00 0.00 0.00 0.00 0.00 0.00 0.00 0.00
0.02 0.01 0.01 0.01 0.01 0.01 0.00 0.00 0.00 0.00 0.00 0.00 0.00 0.00 0.00 0.00 0.00 0.00 0.00 0.00 0.00 0.00 0.00 0.00 0.00 0.00 0.00 0.00 0.00 0.00 0.00 0.00 0.00 0.00 0.00 0.00 0.00 0.00 0.00 0.00 0.00 0.00 0.00 0.00
0.02 0.03 0.04 0.03 0.02 0.01 0.00 0.00 0.00 0.00 0.00 0.00 0.00 0.00 0.00 0.00 0.00 0.00 0.00 0.00 0.00 0.00 0.00 0.00 0.00 0.00 0.00 0.00 0.00 0.00 0.00 0.00 0.00 0.00 0.00 0.00 0.00 0.00 0.00 0.00 0.00 0.00 0.00 0.00
0.03 0.04 0.07 0.06 0.04 0.01 0.00 0.00 0.00 0.00 0.00 0.00 0.00 0.00 0.00 0.00 0.00 0.00 0.00 0.00 0.00 0.00 0.00 0.00 0.00 0.00 0.00 0.00 0.00 0.00 0.00 0.00 0.00 0.00 0.00 0.00 0.00 0.00 0.00 0.00 0.00 0.00 0.00 0.00
0.07 0.09 0.11 0.08 0.04 0.01 0.00 0.00 0.00 0.00 0.00 0.00 0.00 0.00 0.00 0.00 0.00 0.00 0.00 0.00 0.00 0.00 0.00 0.00 0.00 0.00 0.00 0.00 0.00 0.00 0.00 0.00 0.00 0.00 0.00 0.00 0.00 0.00 0.00 0.00 0.00 0.00 0.00 0.00
0.03 0.05 0.06 0.05 0.04 0.01 0.00 0.00 0.00 0.00 0.00 0.00 0.00 0.00 0.00 0.00 0.00 0.00 0.00 0.00 0.00 0.00 0.00 0.00 0.00 0.00 0.00 0.00 0.00 0.00 0.00 0.00 0.00 0.00 0.00 0.00 0.00 0.00 0.00 0.00 0.00 0.00 0.00 0.00
0.01 0.01 0.01 0.01 0.01 0.00 0.00 0.00 0.00 0.00 0.00 0.00 0.00 0.00 0.00 0.00 0.00 0.00 0.00 0.00 0.00 0.00 0.00 0.00 0.00 0.00 0.00 0.00 0.00 0.00 0.00 0.00 0.00 0.00 0.00 0.00 0.00 0.00 0.00 0.00 0.00 0.00 0.00 0.00
0.00 0.00 0.00 0.00 0.00 0.00 0.00 0.00 0.00 0.00 0.00 0.00 0.00 0.00 0.00 0.00 0.00 0.00 0.00 0.00 0.00 0.00 0.00 0.00 0.00 0.00 0.00 0.00 0.00 0.00 0.00 0.00 0.00 0.00 0.00 0.00 0.00 0.00 0.00 0.00 0.00 0.00 0.00 0.00
0.00 0.00 0.00 0.00 0.00 0.00 0.00 0.00 0.00 0.00 0.00 0.00 0.00 0.00 0.00 0.00 0.00 0.00 0.00 0.00 0.00 0.00 0.00 0.00 0.00 0.00 0.00 0.00 0.00 0.00 0.00 0.00 0.00 0.00 0.00 0.00 0.00 0.00 0.00 0.00 0.00 0.00 0.00 0.00
0.00 0.00 0.00 0.00 0.00 0.00 0.00 0.00 0.00 0.00 0.00 0.00 0.00 0.00 0.00 0.00 0.00 0.00 0.00 0.00 0.00 0.00 0.00 0.00 0.00 0.00 0.00 0.00 0.00 0.00 0.00 0.00 0.00 0.00 0.00 0.00 0.00 0.00 0.00 0.00 0.00 0.00 0.00 0.00
MSLP
1014.13 1014.41 1014.53 1014.56 1014.59 1014.68 1014.89 1015.23 1015.68 1016.15 1016.58 1016.87 1016.99 1016.89 1016.62 1016.21 1015.75 1015.33 1015.01 1014.83 1014.80 1014.91 1015.12 1015.39 1015.68 1015.97 1016.26 1016.58 1016.95 1017.39 1017.91 1018.51 1019.15 1019.81 1020.43 1020.98 1021.43 1021.77 1022.01 1022.19 1022.35 1022.51 1022.71 1022.96
1013.98 1014.15 1014.18 1014.15 1014.16 1014.29 1014.58 1015.04 1015.61 1016.20 1016.70 1017.04 1017.13 1016.98 1016.61 1016.09 1015.53 1015.02 1014.66 1014.47 1014.48 1014.64 1014.92 1015.24 1015.55 1015.84 1016.09 1016.34 1016.61 1016.96 1017.40 1017.95 1018.58 1019.26 1019.93 1020.54 1021.06 1021.46 1021.75 1021.96 1022.11 1022.26 1022.44 1022.66
1013.81 1013.89 1013.85 1013.79 1013.81 1014.00 1014.38 1014.94 1015.60 1016.27 1016.81 1017.14 1017.19 1016.96 1016.48 1015.85 1015.21 1014.64 1014.26 1014.11 1014.18 1014.43 1014.79 1015.19 1015.55 1015.85 1016.07 1016.25 1016.43 1016.67 1017.02 1017.49 1018.07 1018.73 1019.42 1020.06 1020.63 1021.08 1021.42 1021.65 1021.82 1021.97 1022.14 1022.35
1013.64 1013.67 1013.61 1013.56 1013.64 1013.90 1014.36 1015.01 1015.74 1016.44 1016.98 1017.26 1017.23 1016.89 1016.30 1015.57 1014.85 1014.25 1013.88 1013.77 1013.93 1014.28 1014.76 1015.25 1015.67 1015.99 1016.20 1016.32 1016.42 1016.56 1016.80 1017.17 1017.68 1018.29 1018.95 1019.60 1020.19 1020.68 1021.05 1021.31 1021.51 1021.68 1021.85 1022.06
1013.48 1013.50 1013.47 1013.49 1013.65 1014.00 1014.56 1015.28 1016.05 1016.75 1017.25 1017.45 1017.31 1016.85 1016.15 1015.33 1014.55 1013.94 1013.58 1013.54 1013.78 1014.25 1014.83 1015.42 1015.92 1016.27 1016.47 1016.55 1016.58 1016.62 1016.76 1017.03 1017.45 1017.99 1018.60 1019.23 1019.82 1020.32 1020.71 1021.01 1021.24 1021.44 1021.63 1021.85
1013.27 1013.34 1013.40 1013.52 1013.80 1014.27 1014.92 1015.70 1016.49 1017.16 1017.59 1017.70 1017.45 1016.88 1016.09 1015.20 1014.38 1013.77 1013.45 1013.47 1013.80 1014.36 1015.04 1015.71 1016.27 1016.66 1016.86 1016.92 1016.89 1016.86 1016.91 1017.10 1017.42 1017.88 1018.44 1019.02 1019.59 1020.09 1020.50 1020.82 1021.09 1021.32 1021.54 1021.78
1012.96 1013.12 1013.30 1013.57 1013.98 1014.58 1015.32 1016.14 1016.93 1017.56 1017.92 1017.94 1017.60 1016.96 1016.10 1015.19 1014.37 1013.78 1013.52 1013.60 1014.00 1014.63 1015.38 1016.10 1016.70 1017.12 1017.34 1017.38 1017.33 1017.25 1017.24 1017.35 1017.61 1018.00 1018.49 1019.03 1019.57 1020.06 1020.48 1020.82 1021.11 1021.38 1021.63 1021.89
1012.49 1012.78 1013.10 1013.52 1014.08 1014.79 1015.61 1016.47 1017.24 1017.83 1018.13 1018.08 1017.69 1017.01 1016.15 1015.26 1014.49 1013.97 1013.77 1013.91 1014.37 1015.05 1015.82 1016.57 1017.19 1017.62 1017.85 1017.90 1017.84 1017.75 1017.72 1017.79 1018.01 1018.36 1018.80 1019.30 1019.81 1020.28 1020.70 1021.05 1021.36 1021.65 1021.93 1022.20
1011.86 1012.28 1012.75 1013.32 1014.01 1014.81 1015.68 1016.54 1017.29 1017.83 1018.08 1018.00 1017.60 1016.95 1016.15 1015.35 1014.68 1014.25 1014.14 1014.35 1014.85 1015.55 1016.33 1017.08 1017.69 1018.12 1018.35 1018.42 1018.38 1018.32 1018.30 1018.39 1018.60 1018.93 1019.35 1019.83 1020.31 1020.76 1021.16 1021.52 1021.83 1022.13 1022.42 1022.70
1011.11 1011.66 1012.26 1012.95 1013.74 1014.59 1015.47 1016.30 1017.01 1017.49 1017.70 1017.62 1017.25 1016.68 1016.00 1015.34 1014.82 1014.53 1014.53 1014.82 1015.36 1016.06 1016.82 1017.54 1018.14 1018.56 1018.81 1018.91 1018.92 1018.92 1018.96 1019.09 1019.34 1019.68 1020.11 1020.57 1021.03 1021.46 1021.84 1022.18 1022.49 1022.77 1023.05 1023.33
1010.37 1011.03 1011.73 1012.49 1013.31 1014.17 1015.01 1015.77 1016.39 1016.80 1016.98 1016.90 1016.60 1016.14 1015.62 1015.14 1014.81 1014.69 1014.82 1015.19 1015.77 1016.47 1017.21 1017.90 1018.47 1018.90 1019.17 1019.33 1019.42 1019.50 1019.64 1019.85 1020.16 1020.55 1021.00 1021.46 1021.91 1022.31 1022.66 1022.97 1023.25 1023.50 1023.76 1024.01
1009.77 1010.50 1011.26 1012.05 1012.85 1013.65 1014.39 1015.04 1015.54 1015.86 1015.98 1015.90 1015.67 1015.35 1015.00 1014.72 1014.58 1014.64 1014.91 1015.37 1015.99 1016.70 1017.43 1018.09 1018.66 1019.10 1019.42 1019.65 1019.85 1020.05 1020.30 1020.62 1021.01 1021.46 1021.94 1022.40 1022.84 1023.21 1023.52 1023.79 1024.02 1024.23 1024.44 1024.66
1009.41 1010.18 1010.96 1011.72 1012.46 1013.15 1013.75 1014.24 1014.58 1014.78 1014.82 1014.73 1014.56 1014.34 1014.16 1014.07 1014.12 1014.34 1014.74 1015.30 1015.98 1016.70 1017.42 1018.09 1018.67 1019.15 1019.54 1019.88 1020.20 1020.53 1020.91 1021.34 1021.82 1022.33 1022.84 1023.31 1023.72 1024.06 1024.33 1024.54 1024.72 1024.88 1025.04 1025.21
1009.33 1010.11 1010.87 1011.58 1012.21 1012.75 1013.17 1013.47 1013.64 1013.69 1013.63 1013.50 1013.35 1013.22 1013.17 1013.23 1013.44 1013.81 1014.33 1014.98 1015.70 1016.46 1017.21 1017.90 1018.53 1019.07 1019.57 1020.02 1020.47 1020.94 1021.45 1021.99 1022.55 1023.11 1023.64 1024.11 1024.49 1024.79 1025.01 1025.18 1025.30 1025.41 1025.52 1025.64
1009.49 1010.26 1010.97 1011.58 1012.09 1012.46 1012.70 1012.80 1012.78 1012.67 1012.50 1012.32 1012.16 1012.08 1012.11 1012.29 1012.62 1013.10 1013.71 1014.43 1015.21 1016.02 1016.81 1017.56 1018.26 1018.91 1019.51 1020.10 1020.69 1021.30 1021.92 1022.55 1023.18 1023.77 1024.30 1024.75 1025.11 1025.37 1025.55 1025.66 1025.74 1025.81 1025.88 1025.95
1009.79 1010.51 1011.14 1011.65 1012.01 1012.22 1012.27 1012.19 1012.00 1011.75 1011.48 1011.23 1011.06 1010.99 1011.08 1011.32 1011.72 1012.28 1012.96 1013.74 1014.58 1015.44 1016.30 1017.13 1017.93 1018.70 1019.44 1020.16 1020.89 1021.61 1022.33 1023.02 1023.69 1024.29 1024.82 1025.24 1025.57 1025.79 1025.93 1026.01 1026.06 1026.10 1026.13 1026.18
1010.07 1010.71 1011.25 1011.64 1011.86 1011.93 1011.83 1011.60 1011.28 1010.91 1010.56 1010.26 1010.07 1010.02 1010.12 1010.41 1010.86 1011.46 1012.19 1013.01 1013.90 1014.83 1015.77 1016.70 1017.62 1018.51 1019.39 1020.25 1021.09 1021.91 1022.70 1023.44 1024.11 1024.71 1025.21 1025.60 1025.89 1026.09 1026.20 1026.27 1026.30 1026.31 1026.33 1026.36
1010.20 1010.73 1011.15 1011.42 1011.53 1011.47 1011.27 1010.94 1010.54 1010.12 1009.73 1009.42 1009.22 1009.18 1009.31 1009.62 1010.09 1010.72 1011.48 1012.35 1013.29 1014.29 1015.32 1016.36 1017.39 1018.42 1019.42 1020.40 1021.34 1022.23 1023.06 1023.81 1024.48 1025.05 1025.52 1025.87 1026.14 1026.31 1026.41 1026.47 1026.50 1026.51 1026.51 1026.52
1010.10 1010.50 1010.79 1010.95 1010.96 1010.82 1010.55 1010.19 1009.77 1009.36 1008.98 1008.70 1008.53 1008.52 1008.68 1009.01 1009.51 1010.16 1010.95 1011.85 1012.84 1013.91 1015.02 1016.17 1017.32 1018.46 1019.57 1020.64 1021.65 1022.59 1023.44 1024.19 1024.83 1025.37 1025.79 1026.12 1026.35 1026.51 1026.61 1026.67 1026.70 1026.71 1026.70 1026.68
1009.79 1010.06 1010.22 1010.27 1010.20 1010.01 1009.73 1009.38 1009.01 1008.64 1008.34 1008.12 1008.03 1008.07 1008.27 1008.64 1009.16 1009.83 1010.65 1011.58 1012.63 1013.75 1014.95 1016.18 1017.43 1018.66 1019.86 1021.00 1022.06 1023.02 1023.86 1024.59 1025.19 1025.68 1026.07 1026.36 1026.58 1026.73 1026.83 1026.89 1026.92 1026.92 1026.89 1026.83
1009.38 1009.50 1009.55 1009.51 1009.39 1009.19 1008.93 1008.63 1008.34 1008.08 1007.88 1007.76 1007.76 1007.88 1008.14 1008.55 1009.11 1009.81 1010.64 1011.61 1012.69 1013.87 1015.12 1016.42 1017.74 1019.04 1020.29 1021.47 1022.54 1023.50 1024.32 1025.01 1025.58 1026.02 1026.37 1026.64 1026.83 1026.98 1027.07 1027.13 1027.15 1027.13 1027.06 1026.95
1008.98 1008.98 1008.94 1008.84 1008.69 1008.50 1008.29 1008.09 1007.90 1007.76 1007.69 1007.70 1007.80 1008.01 1008.34 1008.79 1009.38 1010.10 1010.96 1011.95 1013.05 1014.26 1015.55 1016.89 1018.25 1019.58 1020.85 1022.03 1023.09 1024.02 1024.81 1025.46 1025.98 1026.38 1026.70 1026.94 1027.12 1027.26 1027.34 1027.39 1027.38 1027.32 1027.20 1027.01
1008.71 1008.63 1008.52 1008.39 1008.25 1008.10 1007.97 1007.86 1007.80 1007.80 1007.85 1007.98 1008.18 1008.48 1008.87 1009.37 1009.99 1010.73 1011.59 1012.59 1013.70 1014.92 1016.22 1017.56 1018.92 1020.24 1021.50 1022.65 1023.68 1024.57 1025.31 1025.90 1026.38 1026.75 1027.04 1027.26 1027.43 1027.55 1027.62 1027.64 1027.59 1027.48 1027.29 1027.01
1008.62 1008.50 1008.38 1008.25 1008.14 1008.06 1008.02 1008.02 1008.08 1008.20 1008.37 1008.61 1008.90 1009.27 1009.71 1010.25 1010.88 1011.63 1012.50 1013.48 1014.58 1015.79 1017.06 1018.38 1019.71 1020.99 1022.20 1023.30 1024.27 1025.10 1025.78 1026.33 1026.76 1027.10 1027.37 1027.57 1027.72 1027.82 1027.87 1027.86 1027.77 1027.59 1027.31 1026.95
1008.70 1008.58 1008.47 1008.39 1008.34 1008.35 1008.41 1008.52 1008.69 1008.91 1009.19 1009.51 1009.87 1010.30 1010.78 1011.34 1011.98 1012.73 1013.59 1014.55 1015.63 1016.79 1018.03 1019.29 1020.55 1021.76 1022.90 1023.92 1024.82 1025.58 1026.20 1026.70 1027.10 1027.41 1027.66 1027.85 1027.99 1028.07 1028.10 1028.04 1027.90 1027.65 1027.30 1026.85
1008.86 1008.77 1008.71 1008.70 1008.74 1008.83 1008.99 1009.21 1009.47 1009.78 1010.13 1010.52 1010.94 1011.41 1011.92 1012.50 1013.15 1013.90 1014.74 1015.68 1016.72 1017.84 1019.01 1020.20 1021.38 1022.50 1023.54 1024.48 1025.29 1025.98 1026.54 1027.00 1027.37 1027.66 1027.89 1028.07 1028.20 1028.27 1028.27 1028.18 1027.99 1027.69 1027.27 1026.75
Thickness
5606 5606 5613 5628 5638 5648 5651 5651 5655 5661 5664 5667 5667 5675 5687 5694 5695 5698 5704 5710 5713 5716 5722 5724 5724 5723 5721 5718 5716 5713 5708 5703 5699 5694 5690 5686 5683 5681 5678 5676 5674 5671 5668 5665
5597 5605 5625 5634 5638 5641 5644 5645 5651 5645 5655 5659 5663 5669 5684 5694 5697 5701 5704 5708 5712 5715 5717 5719 5719 5718 5717 5715 5714 5712 5709 5705 5701 5697 5692 5688 5684 5681 5678 5675 5672 5669 5666 5664
5601 5617 5626 5628 5630 5632 5637 5642 5647 5640 5642 5650 5653 5656 5672 5690 5699 5704 5708 5711 5714 5714 5713 5712 5712 5712 5711 5710 5710 5710 5708 5705 5701 5696 5691 5686 5682 5679 5675 5673 5670 5667 5664 5661
5599 5613 5619 5620 5625 5631 5629 5646 5648 5637 5633 5632 5640 5636 5674 5687 5690 5696 5700 5703 5707 5710 5710 5708 5707 5706 5705 5705 5705 5705 5704 5702 5699 5695 5690 5684 5680 5676 5674 5671 5668 5664 5661 5657
5595 5601 5609 5613 5625 5630 5628 5638 5638 5635 5634 5631 5634 5633 5657 5686 5683 5689 5694 5697 5699 5701 5701 5700 5699 5698 5698 5698 5698 5698 5698 5697 5695 5692 5687 5682 5677 5673 5670 5667 5664 5660 5657 5653
5590 5600 5607 5615 5621 5623 5619 5622 5622 5625 5620 5607 5628 5626 5644 5669 5683 5691 5692 5692 5692 5691 5691 5690 5689 5689 5688 5689 5689 5690 5690 5689 5688 5685 5681 5676 5671 5667 5663 5660 5656 5653 5649 5645
5573 5584 5594 5606 5601 5604 5613 5603 5587 5586 5584 5595 5628 5628 5643 5679 5688 5690 5686 5683 5682 5682 5681 5679 5679 5678 5678 5679 5680 5680 5680 5679 5678 5676 5672 5669 5664 5660 5656 5652 5648 5643 5639 5635
5569 5569 5584 5597 5603 5599 5606 5610 5587 5579 5580 5594 5606 5614 5644 5671 5675 5678 5678 5675 5673 5672 5670 5669 5669 5668 5667 5669 5670 5670 5669 5668 5667 5664 5661 5658 5654 5650 5646 5641 5637 5632 5627 5623
5583 5582 5589 5593 5600 5606 5599 5603 5615 5593 5586 5589 5595 5619 5647 5657 5661 5664 5665 5664 5662 5661 5660 5658 5658 5657 5657 5657 5658 5658 5657 5656 5654 5652 5649 5646 5642 5638 5633 5629 5624 5620 5615 5611
5598 5572 5575 5579 5590 5595 5604 5606 5589 5582 5573 5579 5601 5614 5632 5650 5652 5654 5655 5654 5653 5651 5649 5647 5646 5645 5645 5645 5645 5645 5644 5642 5640 5638 5635 5631 5628 5624 5619 5615 5610 5606 5601 5598
5590 5565 5558 5566 5576 5586 5591 5594 5597 5593 5586 5581 5587 5610 5651 5658 5658 5654 5651 5649 5646 5642 5638 5636 5634 5633 5632 5632 5632 5630 5629 5628 5625 5623 5620 5617 5613 5609 5605 5600 5595 5591 5587 5583
5580 5564 5550 5563 5575 5584 5594 5599 5600 5587 5585 5596 5593 5609 5640 5648 5652 5650 5645 5642 5637 5633 5629 5625 5623 5622 5620 5619 5618 5617 5615 5613 5611 5608 5605 5601 5597 5593 5589 5584 5580 5576 5572 5568
5572 5557 5541 5542 5555 5567 5576 5590 5599 5598 5583 5578 5580 5603 5625 5631 5637 5639 5635 5630 5626 5621 5618 5615 5612 5611 5609 5607 5605 5603 5601 5599 5596 5594 5590 5585 5580 5576 5572 5567 5563 5560 5556 5552
5569 5557 5554 5555 5570 5573 5569 5580 5588 5584 5569 5574 5588 5612 5615 5621 5624 5624 5622 5618 5614 5611 5608 5605 5601 5599 5597 5595 5592 5589 5587 5585 5582 5578 5573 5568 5563 5559 5555 5551 5547 5543 5539 5535
5557 5548 5558 5570 5580 5577 5574 5576 5579 5582 5588 5586 5602 5614 5622 5620 5619 5617 5613 5608 5605 5603 5600 5597 5592 5588 5585 5582 5579 5575 5572 5569 5566 5561 5556 5550 5545 5541 5537 5533 5529 5526 5522 5518
5548 5543 5546 5547 5558 5564 5564 5570 5574 5578 5587 5593 5602 5610 5626 5622 5615 5610 5606 5602 5598 5596 5593 5588 5583 5578 5574 5570 5566 5561 5556 5552 5548 5543 5537 5532 5527 5523 5519 5516 5512 5509 5506 5502
5536 5531 5529 5527 5537 5541 5539 5563 5574 5577 5587 5591 5593 5611 5612 5607 5606 5604 5601 5598 5595 5591 5585 5579 5574 5568 5562 5556 5552 5546 5540 5534 5529 5523 5518 5514 5510 5506 5503 5499 5496 5492 5489 5485
5525 5517 5515 5506 5511 5507 5553 5577 5577 5578 5586 5592 5597 5606 5604 5602 5602 5601 5600 5596 5590 5583 5576 5569 5562 5554 5546 5540 5534 5528 5522 5516 5511 5506 5500 5496 5493 5489 5486 5483 5479 5475 5472 5468
5521 5508 5498 5493 5498 5515 5551 5563 5572 5570 5576 5590 5592 5595 5592 5589 5585 5585 5591 5589 5583 5576 5567 5558 5548 5539 5530 5524 5517 5510 5504 5499 5494 5488 5483 5479 5476 5472 5469 5465 5461 5458 5455 5451
5505 5505 5496 5495 5501 5508 5552 5562 5568 5562 5559 5584 5584 5583 5576 5571 5567 5581 5580 5574 5567 5559 5550 5541 5531 5522 5513 5506 5500 5494 5488 5482 5476 5471 5466 5463 5459 5455 5451 5448 5444 5441 5437 5435
5485 5487 5491 5493 5497 5515 5543 5545 5551 5538 5559 5570 5572 5574 5568 5567 5574 5570 5560 5552 5545 5538 5530 5522 5513 5504 5496 5490 5484 5478 5471 5464 5458 5453 5449 5445 5442 5438 5434 5431 5427 5424 5421 5418
5489 5487 5488 5491 5493 5512 5522 5526 5532 5538 5541 5545 5550 5556 5553 5549 5544 5540 5536 5528 5523 5516 5508 5502 5493 5484 5476 5472 5468 5461 5453 5446 5440 5436 5432 5428 5424 5421 5418 5414 5410 5407 5403 5400
5484 5492 5492 5497 5506 5510 5512 5516 5517 5520 5522 5524 5526 5529 5527 5522 5519 5516 5510 5505 5500 5494 5487 5481 5473 5464 5456 5452 5450 5444 5434 5428 5424 5420 5415 5411 5408 5405 5401 5397 5393 5388 5384 5381
5468 5475 5481 5483 5492 5495 5495 5494 5496 5499 5501 5502 5505 5506 5507 5505 5500 5494 5489 5483 5478 5472 5466 5460 5453 5445 5437 5432 5428 5424 5417 5412 5407 5403 5399 5396 5392 5388 5383 5378 5374 5369 5364 5360
5458 5457 5463 5468 5471 5474 5477 5478 5479 5478 5479 5482 5485 5487 5489 5485 5480 5476 5470 5464 5458 5453 5446 5442 5438 5431 5421 5414 5408 5403 5399 5394 5391 5386 5382 5378 5374 5369 5364 5360 5355 5351 5346 5340
5440 5446 5453 5460 5462 5462 5465 5465 5463 5462 5463 5464 5465 5466 5467 5466 5462 5457 5451 5446 5440 5434 5429 5423 5418 5412 5403 5397 5390 5384 5379 5376 5373 5369 5363 5358 5354 5349 5345 5340 5336 5332 5329 5324